CZ-6A DEB, 55235

Orbit data source: Space-Track

CZ-6A DEB, 55235 is space debris in SSO originally from a launch on Fri, 11 Nov 2022 UTC launched from the Taiyaun Space Center, China (TSC). Debris objects in space refer to the collection of defunct objects orbiting the Earth. Examples of debris include non-operational satellites, rocket bodies, and fragments generated from explosions, collisions, or faulty payload assembly.

Loading next visibility...
Identifier
55235, 2022-151XC
Orbit
SSO
Country
Flag of CNCN / PRC
Related business
Manufacturer
SAST
Mission
Spacecraft
Bus & Motor
Unknown
Mass
Unknown
Launch date (UTC)
2022-11-11 (4 years ago)
Launch vehicle
Unknown
Launch site
Taiyaun Space Center, China (TSC)
Object type
Payload
Rocket body
Debris
Shape & HBR
Unknown shape, 0.1 m
Radar Cross Section
Medium (>0.1 m² and <1 m²)

Expand to show TLE details & history
Last TLE update: 20 hours ago

TLE from 20 hours ago
0 CZ-6A DEB
1 55235U 22151XC  26265.08037359  .00005125  00000-0  80939-3 0  9992
2 55235  98.6323 337.2052 0070430 339.7813  20.0605 14.71182993203006
Epoch: 2026-09-22T01:55Z
TLE epoch observation values (Epoch: 2026-09-22T01:55:44.278Z)
Latitude
-0.00002°
Longitude
-52.68027°
Altitude
613.768 km
Speed
7.577 km/s
True Right ascension
22h 28m 49s
True Declination
0° 00' 00"
Sunlit
Object was in full shadow at epoch
Visualization orbit readout
Latitude
Unknown
Longitude
Unknown
Altitude
Unknown
Speed
Unknown
Apparent Right ascension
Unknown
Apparent Declination
Unknown
Sunlit
N/A
Visualization observer readout
Local Sidereal Time
14:53:58
Azimuth
Unknown
Elevation
Unknown
Doppler factor
Unknown
Orbital elements
Apogee altitude
703.911 km
Perigee altitude
604.851 km
Semi-major axis
7,032.518 km
Eccentricity
0.00704
Inclination
98.6323°
RAAN
337.2052°
Arg. of periapsis
339.7813°
True anomaly
20.33964°
Mean anomaly
20.0605°
Eccentric anomaly
20.19984°
Mean motion
3.68025 °/min
Orbital period
97.82 mins
BSTAR
0.00080939
Loading maneuver chart data...
Computing Atmospheric mass density...
Loading historical data...
Loading historical data...
Loading historical data...
Loading historical data...
Loading historical data...
Loading historical data...
Loading historical data...

Documentation

Showing up to 5 results
|